Pittsfield, MA

8:35 PM EDT on October 20, 2019 (GMT -0400)
Pittsfield Municipal

Weather History for KPSF - June, 2019

Change the Weather History Date:

Friday, June 7, 2019

  Actual Average Record
Temperature  
Mean Temperature 64 °F 61 °F  
Max Temperature 78 °F 72 °F 90 °F (2008)
Min Temperature 51 °F 51 °F 33 °F (1958)
Degree Days  
Heating Degree Days 0 5  
Month to date heating degree days 30 39  
Since 1 June heating degree days 30 39  
Since 1 July heating degree days 6935 7399  
Cooling Degree Days 0 1  
Month to date cooling degree days 1 7  
Year to date cooling degree days 7 20  
Since 1 June cooling degree days 1 7  
Growing Degree Days 14 (Base 50)    
Moisture  
Dew Point 50 °F    
Average Humidity 71    
Maximum Humidity 97    
Minimum Humidity 30    
Precipitation  
Precipitation 0.00 in 0.18 in 1.12 in (1931)
Month to date precipitation 0.99 1.26  
Year to date precipitation 18.71 18.30  
Sea Level Pressure  
Sea Level Pressure 29.90 in    
Wind  
Wind Speed 2 mph ()    
Max Wind Speed 13 mph    
Max Gust Speed 18 mph    
Visibility 7.3 miles    
Events Fog    
T = Trace of Precipitation, MM = Missing Value Source: Averaged Metar Reports

Daily Weather History Graph

Daily Weather History Graph

Search for Another Location

Airport or City:

Astronomy

Jun. 07, 2019 Rise Set
Actual Time 5:16 AM EDT 8:27 PM EDT
Civil Twilight 4:42 AM EDT 9:02 PM EDT
Nautical Twilight 3:57 AM EDT 9:46 PM EDT
Astronomical Twilight 3:04 AM EDT 10:40 PM EDT
Moon 9:31 AM EDT (6/7) No Moon Set
Length of Visible Light 16h 20m
Length of Day
15h 11m
Waxing Crescent, 22% of the Moon is Illuminated
Jun 7
Waxing Crescent
Jun 10
First Quarter
Jun 17
Full
Jun 25
Last Quarter
Jul 2
New

Hourly Weather History & Observations

Time (EDT) Temp. Dew Point Humidity Pressure Visibility Wind Dir Wind Speed Gust Speed Precip Events Conditions
12:54 AM 54.0 °F 52.0 °F 93% 29.84 in 10.0 mi WSW 3.5 mph - N/A   Clear
1:54 AM 54.0 °F 51.1 °F 90% 29.84 in 8.0 mi Calm Calm - N/A   Clear
2:54 AM 55.0 °F 52.0 °F 89% 29.84 in 10.0 mi Calm Calm - N/A   Overcast
3:54 AM 52.0 °F 50.0 °F 93% 29.84 in 5.0 mi Calm Calm - N/A   Clear
4:11 AM 54.0 °F 51.1 °F 90% 29.90 in 3.0 mi Calm Calm - N/A   Clear
4:19 AM 53.1 °F 51.1 °F 93% 29.90 in 2.5 mi Calm Calm - N/A   Clear
4:27 AM 53.1 °F 51.1 °F 93% 29.90 in 4.0 mi Calm Calm - N/A   Clear
4:41 AM 53.1 °F 51.1 °F 93% 29.90 in 6.0 mi Calm Calm - N/A   Partly Cloudy
4:47 AM 52.0 °F 51.1 °F 97% 29.90 in 1.8 mi Calm Calm - N/A   Clear
4:50 AM 51.8 °F 50.0 °F 94% 29.90 in 0.8 mi Calm Calm - N/A   Mist
4:54 AM 52.0 °F 50.0 °F 93% 29.85 in 0.5 mi Calm Calm - N/A Fog Fog
5:18 AM 51.1 °F 48.9 °F 92% 29.92 in 1.0 mi Calm Calm - N/A   Mostly Cloudy
5:30 AM 52.0 °F 51.1 °F 97% 29.92 in 0.8 mi Calm Calm - N/A   Overcast
5:36 AM 52.0 °F 51.1 °F 97% 29.93 in 2.0 mi Calm Calm - N/A   Overcast
5:44 AM 53.1 °F 51.1 °F 93% 29.93 in 5.0 mi Calm Calm - N/A   Overcast
5:54 AM 53.1 °F 51.1 °F 93% 29.88 in 7.0 mi Calm Calm - N/A   Overcast
6:54 AM 55.9 °F 54.0 °F 93% 29.89 in 10.0 mi Calm Calm - N/A   Overcast
7:54 AM 57.0 °F 53.1 °F 87% 29.90 in 10.0 mi Calm Calm - N/A   Clear
8:54 AM 66.9 °F 48.0 °F 51% 29.90 in 10.0 mi Calm Calm - N/A   Clear
9:54 AM 71.1 °F 52.0 °F 51% 29.90 in 10.0 mi Variable 5.8 mph - N/A   Clear
10:54 AM 71.1 °F 52.0 °F 51% 29.91 in 10.0 mi West 9.2 mph - N/A   Clear
11:54 AM 73.9 °F 52.0 °F 46% 29.91 in 10.0 mi Calm Calm - N/A   Clear
12:54 PM 75.9 °F 48.9 °F 38% 29.90 in 10.0 mi NNW 10.4 mph - N/A   Clear
1:54 PM 77.0 °F 48.0 °F 36% 29.88 in 10.0 mi WNW 9.2 mph - N/A   Clear
2:54 PM 78.1 °F 45.0 °F 31% 29.88 in 10.0 mi WNW 9.2 mph - N/A   Clear
3:54 PM 78.1 °F 44.1 °F 30% 29.88 in 10.0 mi Variable 5.8 mph - N/A   Clear
4:54 PM 78.1 °F 46.0 °F 32% 29.88 in 10.0 mi NW 9.2 mph 16.1 mph N/A   Clear
5:54 PM 77.0 °F 48.0 °F 36% 29.88 in 10.0 mi NW 11.5 mph - N/A   Clear
6:54 PM 75.0 °F 48.9 °F 40% 29.87 in 10.0 mi NW 5.8 mph - N/A   Clear
7:54 PM 71.1 °F 46.9 °F 42% 29.89 in 10.0 mi WNW 6.9 mph - N/A   Clear
8:54 PM 66.9 °F 48.0 °F 51% 29.91 in 10.0 mi SW 5.8 mph - N/A   Clear
9:54 PM 64.0 °F 48.0 °F 56% 29.94 in 10.0 mi Calm Calm - N/A   Clear
10:54 PM 57.9 °F 51.1 °F 78% 29.96 in 10.0 mi Calm Calm - N/A   Clear
11:54 PM 57.0 °F 48.9 °F 74% 29.96 in 10.0 mi Calm Calm - N/A   Clear